Theta_e
292 291 291 291 290 290 290 291 290 290 290 290 289 289 288 288 288 287 287 287 286 287 287 287 287 287 287 287 286 286 286 286 285 285 285 285 285 284 284 284 283 283
291 291 291 291 290 290 290 291 291 290 290 289 289 288 288 288 287 287 287 286 287 287 287 287 287 287 287 286 286 286 286 285 285 285 284 284 284 284 284 283 283 283
290 290 291 291 290 290 290 290 290 290 290 289 288 288 288 287 287 287 287 286 287 287 287 287 287 287 286 286 286 285 285 285 285 284 284 284 284 283 283 283 283 282
290 290 291 291 291 291 290 290 290 290 289 289 288 288 288 287 287 286 286 287 287 287 287 287 287 286 286 286 286 285 285 285 284 284 284 283 283 283 283 283 282 282
289 290 290 290 290 290 290 290 290 290 289 288 288 288 287 287 287 286 286 287 287 288 287 287 287 286 286 285 285 285 285 284 284 284 283 283 283 283 283 282 282 282
289 289 290 290 290 290 290 290 290 290 289 288 288 288 287 287 287 287 287 287 287 288 287 287 286 286 286 285 285 285 285 284 284 284 283 283 283 283 282 282 282 282
289 289 290 290 290 290 290 290 290 290 289 288 288 288 287 287 287 287 287 287 287 287 287 287 286 286 286 285 285 285 284 284 284 284 283 283 283 282 282 282 282 282
289 290 289 289 289 290 290 290 290 290 289 288 288 287 287 287 287 287 287 287 287 287 287 287 286 286 286 285 285 285 284 284 284 284 283 283 282 282 282 282 282 282
289 289 289 289 289 289 290 290 290 289 289 288 288 287 287 287 287 287 287 287 287 287 287 287 286 286 285 285 285 285 284 284 284 283 283 282 282 282 282 282 281 281
289 289 289 289 289 289 290 290 290 289 288 288 287 287 287 286 286 286 287 287 287 287 287 286 286 285 285 285 285 285 284 284 283 283 282 282 282 282 282 281 281 281
289 289 288 288 289 289 289 289 289 288 288 287 287 287 286 286 286 286 286 287 287 287 287 286 286 285 285 285 285 285 284 284 283 283 282 282 281 281 281 281 281 281
289 289 288 288 288 289 289 289 289 288 287 287 287 286 286 285 285 286 286 287 287 287 287 286 285 285 285 285 285 285 284 284 283 282 281 281 281 281 281 281 281 281
289 289 288 288 288 288 289 289 288 288 287 287 286 286 286 285 285 286 286 286 287 286 286 286 285 285 285 285 285 285 284 283 282 282 281 281 281 281 281 281 281 280
289 288 288 288 288 288 288 288 287 287 287 286 286 286 286 286 286 286 286 286 286 286 286 285 285 285 286 286 286 285 284 283 282 281 281 281 281 281 280 280 280 280
289 288 288 288 287 287 288 287 287 287 286 286 286 285 285 285 285 285 286 286 286 285 285 285 285 286 286 287 286 285 284 283 282 282 281 281 281 281 280 280 280 280
288 288 288 288 287 287 287 287 286 286 286 286 286 285 285 285 285 285 286 286 286 285 285 285 285 286 287 287 286 285 284 283 283 282 282 282 281 281 280 280 280 280
288 288 288 288 287 287 287 286 286 286 286 286 285 285 285 284 285 285 285 285 285 285 285 285 286 287 287 286 285 284 284 283 283 283 282 282 281 281 280 280 280 279
288 288 287 287 287 287 286 286 286 286 286 286 285 285 284 284 284 285 285 285 285 285 285 286 287 287 287 286 285 284 284 284 284 283 283 282 282 281 280 280 280 279
288 287 287 287 287 287 286 286 285 286 286 286 285 285 284 284 284 285 285 285 285 285 286 287 287 287 286 286 285 284 284 284 283 283 283 282 282 281 281 280 280 279
287 287 287 287 287 286 286 285 285 285 286 286 285 285 284 285 285 284 285 285 285 286 286 287 287 287 286 285 285 284 283 283 284 283 282 282 282 281 281 280 279 279
287 287 287 286 286 286 285 285 285 285 285 285 285 285 285 285 285 285 285 285 286 286 287 287 287 286 286 285 285 284 282 283 283 283 282 282 281 281 281 281 280 279
287 287 286 286 286 285 285 284 284 284 285 285 285 285 285 284 285 285 285 285 287 287 286 287 287 286 285 285 284 283 282 281 282 283 283 282 282 282 282 281 281 280
287 286 286 286 285 285 284 284 284 284 284 284 284 284 284 285 285 285 285 286 288 287 286 286 287 286 285 285 284 283 281 280 281 282 282 282 282 282 282 282 282 281
287 286 286 286 285 285 285 284 284 284 284 284 284 284 285 285 285 285 286 288 288 287 286 286 286 286 285 284 284 283 281 280 280 281 281 281 282 282 282 282 282 281
287 286 286 286 285 285 285 284 284 284 284 284 284 285 285 285 285 285 287 289 289 287 286 286 286 285 285 284 284 283 281 280 280 280 280 280 281 282 282 282 282 282
287 286 286 286 286 285 285 284 284 284 284 283 284 284 284 284 284 286 288 289 288 286 284 284 285 285 285 284 284 282 281 281 280 280 280 280 281 281 281 281 282 282
Wind_Speed
43 44 43 41 40 40 40 39 37 36 34 32 31 30 29 27 26 25 23 22 21 19 19 17 16 14 13 12 11 10 10 10 10 9 8 7 6 6 5 5 5 5
43 43 42 41 40 39 39 37 36 34 33 31 31 30 29 28 26 25 23 22 21 19 17 16 14 13 12 11 10 9 9 9 9 9 7 6 6 6 6 6 6 5
42 42 42 41 41 40 38 36 34 33 32 32 31 30 29 28 27 25 23 22 20 18 17 15 14 13 12 11 10 9 8 8 8 8 7 7 6 6 6 6 6 6
42 42 42 41 41 40 38 37 35 34 33 32 31 30 29 28 27 25 24 22 20 18 17 16 15 14 13 12 10 9 8 8 8 8 7 7 7 6 7 7 7 7
41 41 41 41 40 40 39 37 36 35 34 33 32 31 29 28 27 25 24 22 19 18 17 17 16 15 14 12 11 10 9 8 9 8 7 7 7 7 7 8 7 7
41 41 41 41 40 40 39 38 36 35 34 34 33 32 30 29 27 26 24 21 19 18 18 18 17 16 15 14 12 11 10 9 9 8 8 8 8 8 8 9 8 7
41 41 41 41 41 41 40 38 37 36 35 34 34 32 31 30 28 26 24 21 20 19 18 18 17 17 16 15 14 13 12 10 9 9 9 9 9 9 9 9 9 8
42 42 42 42 42 42 41 39 38 37 36 36 34 33 32 30 29 27 24 22 21 19 18 18 17 17 16 16 14 13 12 11 10 10 10 11 10 10 11 10 10 10
43 43 43 42 43 43 42 40 39 38 38 36 35 34 32 31 29 27 25 23 21 20 19 18 18 17 16 15 14 13 12 12 12 11 11 12 12 12 11 11 11 11
43 43 43 43 44 44 43 42 40 39 39 37 36 34 33 31 29 27 26 24 22 21 20 19 19 18 17 15 13 12 12 12 12 12 12 12 13 12 12 12 12 12
44 44 44 45 45 45 44 43 41 41 40 38 37 35 33 32 30 28 26 25 23 22 21 20 19 18 17 15 13 13 13 13 12 12 13 13 13 13 13 13 13 12
44 44 44 45 45 45 44 43 42 41 40 39 37 35 34 32 30 28 27 25 23 22 21 21 20 19 17 15 14 14 14 14 13 13 14 14 14 14 14 14 13 13
43 43 43 44 44 44 44 43 42 41 40 39 37 35 34 32 31 29 27 26 24 23 22 21 20 19 17 15 15 15 15 15 15 14 15 15 15 15 15 14 13 13
41 42 42 42 42 43 43 42 42 41 40 38 37 36 34 33 31 30 29 27 25 24 23 22 20 19 17 17 17 17 17 16 16 15 15 15 15 15 15 15 14 13
40 41 41 41 41 41 41 41 41 40 39 38 37 36 34 32 31 31 29 28 26 25 24 23 21 19 18 18 18 18 18 18 17 16 16 15 15 15 15 15 15 14
39 40 40 40 40 40 40 40 40 39 39 38 37 35 34 32 32 31 29 28 28 26 25 24 22 20 19 19 19 19 19 18 18 17 16 16 16 16 17 16 15 15
37 38 38 39 39 39 39 39 39 39 39 39 37 35 34 33 32 31 30 29 28 27 26 24 22 21 21 21 20 20 20 19 19 18 17 17 18 18 18 17 16 16
36 37 37 38 38 38 39 39 39 39 39 39 38 36 35 33 32 32 31 29 28 28 26 24 22 22 22 22 22 22 22 21 20 19 19 19 19 19 19 18 17 17
36 36 37 37 38 38 39 39 39 40 40 40 39 38 36 34 33 33 31 30 29 28 25 24 24 24 24 24 24 24 23 23 22 21 21 21 20 20 20 19 18 18
35 35 36 36 37 38 38 39 39 40 41 41 40 38 37 36 35 34 33 31 30 27 26 26 27 26 25 26 26 26 25 24 24 23 23 23 22 21 21 20 19 19
35 35 36 36 37 37 38 39 40 41 41 41 41 40 39 39 37 36 34 32 30 28 29 30 30 28 27 28 29 28 27 26 26 25 25 25 24 23 21 21 20 20
35 36 36 36 36 37 38 39 40 41 42 42 41 40 40 39 38 37 35 33 30 30 33 34 32 30 30 31 31 29 28 28 28 27 27 26 25 23 22 21 20 20
36 36 36 36 36 37 39 40 41 42 42 42 41 41 40 40 39 38 36 32 31 34 37 37 36 34 33 33 33 31 29 29 30 29 28 27 26 25 24 22 21 21
36 36 37 37 38 39 41 41 40 40 41 42 42 42 42 42 41 40 36 32 34 38 41 41 39 36 35 35 34 33 31 31 31 31 31 30 29 28 27 25 23 23
36 37 37 38 39 40 40 39 39 39 40 40 41 42 42 42 42 40 37 35 39 43 44 43 41 38 37 36 35 34 33 33 33 32 33 33 32 31 31 29 26 25
36 37 37 38 39 39 38 38 38 38 38 39 40 41 41 40 41 41 39 39 43 46 45 44 43 40 38 37 36 35 35 35 35 35 36 36 35 34 34 32 30 28
Wind_Direction
178 176 175 173 172 170 168 167 165 163 161 160 158 157 156 154 153 153 151 148 145 139 130 124 120 121 124 128 134 136 136 137 135 133 136 137 135 139 147 148 151 160
179 178 177 175 174 173 171 169 167 165 163 162 161 159 158 157 156 155 154 151 147 139 131 127 127 131 136 142 147 150 149 149 145 143 151 154 153 157 160 165 169 173
181 181 180 179 177 175 173 171 169 167 166 165 164 163 161 159 159 158 157 154 148 142 137 136 140 145 152 155 158 160 158 158 157 158 166 168 166 170 173 180 185 183
184 184 182 181 179 177 175 172 171 170 169 169 168 166 164 162 162 162 160 157 152 147 145 148 153 158 163 165 166 168 167 169 174 174 178 180 178 184 190 194 197 195
186 186 184 183 181 179 177 175 174 173 172 172 171 169 167 165 165 165 163 160 157 154 154 157 163 166 168 171 172 175 178 182 186 186 190 194 193 198 204 206 208 206
188 188 186 186 184 182 180 178 176 175 176 176 174 172 170 168 168 168 166 164 163 163 163 165 169 171 173 176 177 181 187 191 195 196 201 207 208 211 213 216 220 218
190 190 189 189 187 185 183 181 179 179 179 179 177 175 173 171 171 170 169 170 170 169 169 171 174 176 178 181 182 185 191 195 201 204 211 218 219 220 220 221 226 226
192 192 191 191 189 187 186 183 182 183 183 183 181 178 176 175 174 173 173 175 174 173 175 177 180 182 184 185 186 189 193 198 205 211 218 223 223 225 225 226 230 232
195 194 194 194 192 190 188 186 185 186 186 186 183 181 179 179 177 176 176 178 178 178 180 182 184 187 189 190 191 194 198 204 211 216 222 227 229 229 230 230 233 236
198 197 196 196 195 193 190 189 189 189 189 188 186 183 182 182 181 180 179 180 181 182 184 186 188 190 192 194 196 200 207 212 217 222 226 230 232 233 235 236 235 237
200 199 199 198 197 195 193 191 191 192 191 191 189 186 184 184 184 183 183 184 186 187 188 189 190 192 193 196 201 207 213 218 222 226 229 232 234 236 238 239 237 237
200 200 200 200 198 196 195 194 194 195 194 193 191 189 187 186 186 186 187 188 189 190 191 192 193 193 194 199 206 212 217 221 224 227 230 232 235 237 238 239 239 239
201 201 201 201 200 198 197 197 197 197 197 195 193 191 190 188 188 189 190 191 192 192 194 196 196 194 196 201 209 216 220 223 225 227 230 233 236 238 239 241 241 241
202 202 202 202 201 200 199 199 199 200 199 197 195 194 193 192 191 192 192 192 194 194 196 198 198 198 201 206 212 217 220 224 225 226 230 234 236 239 241 242 244 245
202 203 203 203 202 201 201 201 201 201 201 200 199 198 197 196 195 196 195 193 195 196 198 199 200 202 206 212 216 219 221 224 224 226 230 234 236 240 242 243 244 246
202 203 203 203 203 203 203 203 203 203 203 202 202 201 200 199 199 199 198 197 197 198 200 201 202 206 211 215 218 221 223 224 225 227 229 232 237 239 241 244 244 246
203 203 203 204 204 204 204 204 204 204 204 204 204 203 203 203 203 202 201 201 201 201 202 202 205 210 214 216 218 221 223 224 225 227 229 232 236 238 242 246 246 248
204 204 204 205 205 205 205 206 206 205 205 206 205 205 205 205 206 206 205 204 205 205 206 206 210 215 216 217 220 222 223 225 226 227 230 232 235 239 242 245 247 249
205 205 204 205 206 206 207 207 206 206 207 207 207 207 207 207 208 209 208 207 207 209 210 213 216 218 217 218 222 224 225 227 228 229 231 233 236 240 243 245 247 249
205 205 205 206 207 207 207 207 207 208 208 208 208 207 207 208 209 210 210 209 210 212 215 219 220 218 218 220 224 226 228 230 230 231 233 236 238 240 243 245 247 249
205 206 206 206 207 207 208 208 208 208 208 209 209 209 209 210 210 211 211 210 212 217 220 223 223 219 218 222 226 227 230 233 234 234 234 237 239 241 244 246 248 251
206 206 206 206 206 207 208 209 209 209 209 209 210 210 211 212 212 213 212 212 217 222 224 226 225 221 220 224 227 229 230 234 238 238 238 238 241 243 245 247 250 253
207 206 206 206 206 208 209 210 211 210 210 210 210 210 212 213 215 214 214 218 225 227 227 228 227 223 221 224 228 229 230 232 237 241 243 244 245 247 248 250 251 254
208 208 207 207 208 210 211 212 212 211 211 211 212 212 214 215 216 216 217 225 232 231 229 230 229 225 224 225 229 231 231 233 236 240 244 247 250 251 252 252 253 255
209 209 210 209 211 213 213 213 214 213 214 214 215 216 217 218 218 218 222 232 236 233 231 231 231 229 227 228 230 232 233 235 237 239 242 246 250 252 254 255 255 256
212 212 212 213 214 216 216 216 216 216 216 217 217 218 219 220 220 220 226 235 236 233 232 233 233 232 231 231 232 233 234 236 238 239 241 244 248 251 254 256 257 257